Weather in Felisovo

Russia / Kaluga Oblast     54°35′50″N   36°27′28″E
temp.,
°C
wind,
m/s
gust,
m/s
humid.,
%
clouds,
%
prec.,
mm/h
press.,
hPa
HPBL,
m
10 may, mon
mon1000:00+3nnw412825 0.0 1022219
03:00+2nnw39800 0.0 1024169
06:00+2n39780 0.0 1026189
09:00+9n48520 0.0 10271019
12:00+12n68420 0.0 10261583
15:00+13nne57380 0.0 10261676
18:00+12nne48531 0.0 1026824
21:00+6nne37755 0.0 1027106
11 may, tue
tue1100:00+5ne412755 0.0 1027263
03:00+4nne412792 0.0 1027251
06:00+5ne513805 0.0 1027358
09:00+11ne610695 0.0 1026513
12:00+16ne69635 0.0 1025806
15:00+18ene69639 0.0 10241149
18:00+18ene59735 0.3 1024988
21:00+13sse3895100 2.3 1025332
12 may, wed
wed1200:00+8sse24964 0.0 102772
03:00+7ese119245 0.0 102710
06:00+7ene229181 0.0 102755
09:00+10e0189100 0.1 102543
12:00+10nnw2593100 0.9 1023375
15:00+9sw4798100 4.4 1019303
18:00+8s259420 3.8 1020297
21:00+6ese35962 3.8 1021100
13 may, thu
thu1300:00+6ene4109730 0.0 1021197
03:00+8ese51593100 0.0 1020427
06:00+9ese5129495 0.0 1020377
09:00+10ese3794100 0.3 1019358
12:00+16sse3570100 0.6 1018939
15:00+17sse46599 0.6 10181549
18:00+17sse367075 0.1 1018713
21:00+12ese228790 0.1 101816
14 may, fri
fri1400:00+13e3781100 0.0 1018146
03:00+11ese3892100 0.0 1018130
06:00+13ese4119358 0.0 1017300
09:00+17ese6117991 0.0 1016654
12:00+21se71068100 0.0 10151350
15:00+22se71165100 0.1 10131583
18:00+19se615807 1.8 1012586
21:00+16se61490100 2.6 1012441